• In Slovakia
  • List of Countries
  • For 7 days
  • Water Temperature
  • Satellite Maps
  • Weather Map
  • Weather Widgets
  • user-avatar
    Login

    Hourly Weather Innsbruck

    Today, 15 August, Wednesday

    Time Temperature Precipitation Wind Pressure Humidity
    00:00 +6°C° 0 mm 2 mps 598 mmHg 95%
    01:00 +6°C° 0 mm 2 mps 598 mmHg 95%
    02:00 +6°C° 0 mm 2 mps 598 mmHg 95%
    03:00 +5°C° 0 mm 2 mps 598 mmHg 95%
    04:00 +6°C° 0 mm 1 mps 598 mmHg 95%
    05:00 +7°C° 0 mm 1 mps 599 mmHg 94%
    06:00 +7°C° 0 mm 1 mps 599 mmHg 92%
    07:00 +8°C° 0 mm 1 mps 600 mmHg 90%
    08:00 +10°C° 0 mm 1 mps 600 mmHg 82%
    09:00 +12°C° 0 mm 2 mps 601 mmHg 74%
    10:00 +14°C° 0 mm 2 mps 602 mmHg 65%
    11:00 +14°C° 0.1 mm 2 mps 602 mmHg 62%
    12:00 +15°C° 0.1 mm 2 mps 602 mmHg 59%
    13:00 +16°C° 0.1 mm 2 mps 603 mmHg 55%
    14:00 +16°C° 0.1 mm 2 mps 602 mmHg 57%
    15:00 +16°C° 0.1 mm 2 mps 602 mmHg 59%
    16:00 +15°C° 0.1 mm 2 mps 602 mmHg 61%
    17:00 +14°C° 0.2 mm 2 mps 602 mmHg 70%
    18:00 +13°C° 0.2 mm 2 mps 601 mmHg 78%
    19:00 +11°C° 0.2 mm 1 mps 600 mmHg 87%
    20:00 +10°C° 0 mm 1 mps 600 mmHg 90%
    21:00 +9°C° 0 mm 1 mps 600 mmHg 93%
    22:00 +8°C° 0 mm 1 mps 600 mmHg 96%
    23:00 +8°C° 0 mm 1 mps 600 mmHg 96%

    Tomorrow, 16 August, Thursday

    Time Temperature Precipitation Wind Pressure Humidity
    00:00 +7°C° 0 mm 1 mps 600 mmHg 96%
    01:00 +7°C° 0 mm 1 mps 599 mmHg 96%
    02:00 +7°C° 0 mm 1 mps 599 mmHg 95%
    03:00 +6°C° 0 mm 1 mps 599 mmHg 95%
    04:00 +6°C° 0 mm 1 mps 598 mmHg 94%
    05:00 +7°C° 0 mm 1 mps 599 mmHg 91%
    06:00 +8°C° 0 mm 1 mps 599 mmHg 87%
    07:00 +10°C° 0 mm 1 mps 600 mmHg 83%
    08:00 +12°C° 0 mm 1 mps 601 mmHg 72%
    09:00 +13°C° 0 mm 0 mps 602 mmHg 61%
    10:00 +16°C° 0 mm 0 mps 603 mmHg 49%
    11:00 +19°C° 0 mm 1 mps 603 mmHg 47%
    12:00 +19°C° 0 mm 1 mps 603 mmHg 44%
    13:00 +20°C° 0 mm 1 mps 603 mmHg 41%
    14:00 +20°C° 0 mm 1 mps 602 mmHg 44%
    15:00 +19°C° 0 mm 1 mps 602 mmHg 46%
    16:00 +18°C° 0 mm 2 mps 601 mmHg 49%
    17:00 +16°C° 0 mm 1 mps 601 mmHg 60%
    18:00 +14°C° 0 mm 1 mps 600 mmHg 70%
    19:00 +13°C° 0 mm 1 mps 599 mmHg 81%
    20:00 +11°C° 0 mm 1 mps 599 mmHg 85%
    21:00 +10°C° 0 mm 1 mps 598 mmHg 89%
    22:00 +9°C° 0 mm 1 mps 598 mmHg 93%
    23:00 +9°C° 0 mm 1 mps 598 mmHg 92%

    Day after tomorrow, 17 August, Friday

    Time Temperature Precipitation Wind Pressure Humidity
    00:00 +9°C° 0 mm 1 mps 598 mmHg 92%
    01:00 +8°C° 0 mm 1 mps 598 mmHg 91%
    02:00 +8°C° 0 mm 1 mps 598 mmHg 92%
    03:00 +8°C° 0 mm 1 mps 597 mmHg 92%
    04:00 +8°C° 0 mm 1 mps 597 mmHg 92%
    05:00 +9°C° 0 mm 1 mps 598 mmHg 89%
    06:00 +10°C° 0 mm 1 mps 598 mmHg 86%
    07:00 +11°C° 0 mm 1 mps 599 mmHg 82%
    08:00 +13°C° 0 mm 1 mps 600 mmHg 73%
    09:00 +15°C° 0 mm 1 mps 601 mmHg 64%
    10:00 +18°C° 0 mm 1 mps 601 mmHg 55%
    11:00 +19°C° 0.2 mm 1 mps 601 mmHg 52%
    12:00 +19°C° 0.2 mm 2 mps 602 mmHg 50%
    13:00 +19°C° 0.2 mm 2 mps 602 mmHg 47%
    14:00 +18°C° 0.8 mm 2 mps 601 mmHg 55%
    15:00 +17°C° 0.8 mm 2 mps 601 mmHg 62%
    16:00 +16°C° 0.8 mm 2 mps 600 mmHg 69%
    17:00 +15°C° 1.3 mm 2 mps 600 mmHg 76%
    18:00 +13°C° 1.3 mm 1 mps 599 mmHg 83%
    19:00 +12°C° 1.3 mm 1 mps 599 mmHg 91%
    20:00 +11°C° 0.8 mm 1 mps 599 mmHg 92%
    21:00 +11°C° 0.8 mm 1 mps 599 mmHg 93%
    22:00 +10°C° 0.8 mm 1 mps 599 mmHg 95%
    23:00 +10°C° 0.2 mm 1 mps 599 mmHg 94%

    18 August, Saturday

    Time Temperature Precipitation Wind Pressure Humidity
    00:00 +9°C° 0.2 mm 1 mps 599 mmHg 94%
    01:00 +9°C° 0.2 mm 1 mps 599 mmHg 94%
    02:00 +9°C° 0.2 mm 1 mps 599 mmHg 94%
    03:00 +9°C° 0.2 mm 1 mps 599 mmHg 94%
    04:00 +8°C° 0.2 mm 1 mps 599 mmHg 94%
    05:00 +9°C° 0 mm 1 mps 599 mmHg 93%
    06:00 +9°C° 0 mm 1 mps 600 mmHg 92%
    07:00 +10°C° 0 mm 1 mps 600 mmHg 91%
    08:00 +11°C° 0.1 mm 1 mps 601 mmHg 87%
    09:00 +12°C° 0.1 mm 1 mps 601 mmHg 83%
    10:00 +13°C° 0.1 mm 1 mps 602 mmHg 79%
    11:00 +14°C° 0.3 mm 1 mps 602 mmHg 76%
    12:00 +15°C° 0.3 mm 1 mps 602 mmHg 73%
    13:00 +15°C° 0.3 mm 2 mps 603 mmHg 71%
    14:00 +15°C° 0.8 mm 2 mps 602 mmHg 74%
    15:00 +15°C° 0.8 mm 2 mps 602 mmHg 77%
    16:00 +14°C° 0.8 mm 2 mps 602 mmHg 81%
    17:00 +13°C° 0.8 mm 2 mps 602 mmHg 85%
    18:00 +13°C° 0.8 mm 1 mps 602 mmHg 89%
    19:00 +12°C° 0.8 mm 1 mps 602 mmHg 94%
    20:00 +11°C° 0.7 mm 1 mps 602 mmHg 95%
    21:00 +11°C° 0.7 mm 1 mps 602 mmHg 95%
    22:00 +11°C° 0.7 mm 1 mps 602 mmHg 96%
    23:00 +10°C° 0.4 mm 1 mps 602 mmHg 96%

    19 August, Sunday

    Time Temperature Precipitation Wind Pressure Humidity
    00:00 +10°C° 0.4 mm 1 mps 602 mmHg 97%
    01:00 +9°C° 0.4 mm 0 mps 602 mmHg 97%
    02:00 +9°C° 0.2 mm 0 mps 602 mmHg 97%
    03:00 +8°C° 0.2 mm 0 mps 601 mmHg 97%
    04:00 +8°C° 0.2 mm 0 mps 601 mmHg 97%
    05:00 +9°C° 0.1 mm 0 mps 602 mmHg 95%
    06:00 +9°C° 0.1 mm 0 mps 602 mmHg 94%
    07:00 +10°C° 0.1 mm 0 mps 602 mmHg 92%
    08:00 +11°C° 0.1 mm 0 mps 603 mmHg 85%
    09:00 +14°C° 0.1 mm 1 mps 603 mmHg 79%
    10:00 +15°C° 0.1 mm 1 mps 604 mmHg 72%
    11:00 +16°C° 0.6 mm 1 mps 604 mmHg 70%
    12:00 +18°C° 0.6 mm 1 mps 604 mmHg 68%
    13:00 +18°C° 0.6 mm 1 mps 604 mmHg 66%
    14:00 +17°C° 1.5 mm 2 mps 604 mmHg 69%
    15:00 +17°C° 1.5 mm 2 mps 604 mmHg 72%
    16:00 +16°C° 1.5 mm 2 mps 604 mmHg 76%
    17:00 +15°C° 1.4 mm 1 mps 603 mmHg 81%
    18:00 +14°C° 1.4 mm 1 mps 603 mmHg 87%
    19:00 +13°C° 1.4 mm 1 mps 602 mmHg 92%
    20:00 +11°C° 0.8 mm 0 mps 602 mmHg 93%
    21:00 +10°C° 0.8 mm 0 mps 602 mmHg 94%
    22:00 +10°C° 0.8 mm 0 mps 602 mmHg 95%
    23:00 +9°C° 0.2 mm 0 mps 602 mmHg 95%

    20 August, Monday

    Time Temperature Precipitation Wind Pressure Humidity
    00:00 +9°C° 0.2 mm 0 mps 602 mmHg 96%
    01:00 +9°C° 0.2 mm 0 mps 602 mmHg 96%
    02:00 +8°C° 0.1 mm 0 mps 601 mmHg 96%
    03:00 +8°C° 0.1 mm 0 mps 601 mmHg 96%
    04:00 +7°C° 0.1 mm 0 mps 601 mmHg 96%
    05:00 +8°C° 0 mm 0 mps 601 mmHg 94%
    06:00 +10°C° 0 mm 0 mps 602 mmHg 92%
    07:00 +11°C° 0 mm 0 mps 602 mmHg 91%
    08:00 +12°C° 0 mm 0 mps 603 mmHg 84%
    09:00 +14°C° 0 mm 0 mps 604 mmHg 77%
    10:00 +16°C° 0 mm 0 mps 605 mmHg 70%
    11:00 +18°C° 0.7 mm 1 mps 605 mmHg 68%
    12:00 +19°C° 0.7 mm 1 mps 605 mmHg 67%
    13:00 +19°C° 0.7 mm 1 mps 605 mmHg 65%
    14:00 +19°C° 1.7 mm 1 mps 604 mmHg 68%
    15:00 +19°C° 1.7 mm 1 mps 604 mmHg 71%
    16:00 +18°C° 1.7 mm 1 mps 604 mmHg 74%
    17:00 +16°C° 1.5 mm 1 mps 603 mmHg 79%
    18:00 +15°C° 1.5 mm 1 mps 603 mmHg 85%
    19:00 +13°C° 1.5 mm 1 mps 602 mmHg 90%
    20:00 +13°C° 1 mm 1 mps 602 mmHg 91%
    21:00 +11°C° 1 mm 0 mps 602 mmHg 92%
    22:00 +10°C° 1 mm 0 mps 602 mmHg 94%
    23:00 +10°C° 0.4 mm 0 mps 602 mmHg 94%
    Show more